This demonstration page uses our WeatherBlox Daily Observations layout. Learn more.

Left ArrowRight Arrow

Hourly Observations for November 2, 2019

Temp ( °F °C ) Dew Point ( °F °C ) Humidity (%) Winds ( mph kmh ) Pressure ( in mb ) Visibility ( mi km ) Precip ( " mm )
12:15 am 00:15 Clear 34 1 30 -1 87 87 SSW 5 7 30.25 1024 10 16 N/A
12:35 am 00:35 Clear 34 1 30 -1 87 87 S 5 7 30.26 1025 10 16 N/A
12:55 am 00:55 Clear 34 1 30 -1 87 87 S 6 9 30.25 1024 10 16 N/A
1:15 am 01:15 Clear 34 1 32 0 93 93 S 5 7 30.25 1024 10 16 N/A
1:35 am 01:35 Clear 34 1 32 0 93 93 SSW 5 7 30.24 1024 10 16 N/A
1:36 am 01:36 Clear 34 1 32 0 93 93 SSW 5 7 30.24 1024 10 16 N/A
1:55 am 01:55 Clear 34 1 32 0 93 93 S 5 7 30.23 1024 10 16 N/A
2:15 am 02:15 Partly Cloudy 34 1 32 0 93 93 S 5 7 30.23 1024 10 16 N/A
2:35 am 02:35 Partly Cloudy 34 1 32 0 93 93 S 6 9 30.23 1024 10 16 N/A
2:36 am 02:36 Partly Cloudy 34 1 32 0 93 93 S 5 7 30.23 1024 10 16 N/A
2:55 am 02:55 Clear 32 0 32 0 100 100 S 6 9 30.23 1024 10 16 N/A
2:56 am 02:56 Clear 32 0 32 0 100 100 S 6 9 30.24 1024 10 16 N/A
3:15 am 03:15 Clear 32 0 32 0 100 100 S 6 9 30.24 1024 10 16 N/A
3:35 am 03:35 Clear 32 0 32 0 100 100 S 6 9 30.23 1024 10 16 N/A
3:36 am 03:36 Clear 32 0 32 0 100 100 S 6 9 30.23 1024 10 16 N/A
3:55 am 03:55 Clear 32 0 30 -1 93 93 S 6 9 30.23 1024 10 16 N/A
4:15 am 04:15 Clear 32 0 30 -1 93 93 S 7 11 30.22 1023 10 16 N/A
4:35 am 04:35 Clear 32 0 30 -1 93 93 S 6 9 30.21 1023 10 16 N/A
4:36 am 04:36 Clear 32 0 30 -1 93 93 S 6 9 30.21 1023 10 16 N/A
4:55 am 04:55 Clear 32 0 30 -1 93 93 S 6 9 30.21 1023 10 16 N/A
5:15 am 05:15 Clear 32 0 30 -1 93 93 SSW 5 7 30.21 1023 10 16 N/A
5:16 am 05:16 Clear 32 0 30 -1 93 93 SSW 3 6 30.21 1023 10 16 N/A
5:35 am 05:35 Clear 32 0 32 0 100 100 S 6 9 30.20 1023 10 16 N/A
5:36 am 05:36 Clear 32 0 32 0 100 100 S 6 9 30.20 1023 10 16 N/A
5:55 am 05:55 Clear 32 0 30 -1 93 93 SSW 5 7 30.20 1023 10 16 N/A
5:56 am 05:56 Clear 32 0 30 -1 93 93 SSW 5 7 30.20 1023 10 16 N/A
6:15 am 06:15 Clear 30 -1 30 -1 100 100 SSW 3 6 30.20 1023 10 16 N/A
6:35 am 06:35 Clear 30 -1 30 -1 100 100 SSW 3 6 30.19 1022 10 16 N/A
6:55 am 06:55 Clear 30 -1 30 -1 100 100 SSW 3 6 30.19 1022 10 16 N/A
6:56 am 06:56 Clear 30 -1 30 -1 100 100 SSW 3 6 30.19 1022 10 16 N/A
7:15 am 07:15 Clear 30 -1 30 -1 100 100 Calm 30.19 1022 10 16 N/A
7:35 am 07:35 Clear 28 -2 28 -2 100 100 SSW 3 6 30.19 1022 10 16 N/A
7:36 am 07:36 Clear 28 -2 28 -2 100 100 SSW 3 6 30.19 1022 10 16 N/A
7:55 am 07:55 Clear 28 -2 28 -2 100 100 Calm 30.19 1022 10 16 N/A
8:15 am 08:15 Sunny 28 -2 28 -2 100 100 Calm 30.19 1022 10 16 N/A
8:35 am 08:35 Sunny 28 -2 28 -2 100 100 SSW 3 6 30.20 1023 10 16 N/A
8:55 am 08:55 Mostly Cloudy 32 0 32 0 100 100 WSW 3 6 30.21 1023 10 16 N/A
8:56 am 08:56 Mostly Cloudy 32 0 32 0 100 100 WSW 3 6 30.21 1023 10 16 N/A
9:15 am 09:15 Cloudy 34 1 34 1 100 100 W 5 7 30.20 1023 10 16 N/A
9:35 am 09:35 Cloudy 36 2 34 1 93 93 W 8 13 30.20 1023 10 16 N/A
9:55 am 09:55 Cloudy 36 2 36 2 100 100 W 7 11 30.20 1023 10 16 N/A
9:56 am 09:56 Cloudy 36 2 34 1 93 93 W 6 9 30.20 1023 10 16 N/A
10:15 am 10:15 Cloudy 36 2 36 2 100 100 WSW 6 9 30.20 1023 10 16 N/A
10:35 am 10:35 Mostly Cloudy 37 3 36 2 93 93 W 6 9 30.20 1023 10 16 N/A
10:55 am 10:55 Partly Cloudy 39 4 37 3 93 93 W 7 11 30.19 1022 10 16 N/A
11:15 am 11:15 Sunny 41 5 37 3 87 87 W 8 13 30.20 1023 10 16 N/A
11:16 am 11:16 Sunny 41 5 37 3 87 87 W 9 15 30.20 1023 10 16 N/A
11:35 am 11:35 Partly Cloudy 41 5 37 3 87 87 WNW 10 17 30.20 1023 10 16 N/A
11:55 am 11:55 Sunny 45 7 39 4 81 81 W 9 15 30.19 1022 10 16 N/A
12:15 pm 12:15 Sunny 46 8 39 4 76 76 WSW 7 11 30.18 1022 10 16 N/A
12:35 pm 12:35 Sunny 46 8 37 3 71 71 WSW 9 15 30.18 1022 10 16 N/A
12:55 pm 12:55 Partly Cloudy 48 9 39 4 71 71 W 12 19 30.17 1022 10 16 N/A
12:56 pm 12:56 Partly Cloudy 48 9 39 4 71 71 W 10 17 30.17 1022 10 16 N/A
1:15 pm 13:15 Partly Cloudy 48 9 37 3 66 66 W 13 20 30.15 1021 10 16 N/A
1:35 pm 13:35 Mostly Cloudy 50 10 37 3 62 62 WSW 12 19 30.15 1021 10 16 N/A
1:55 pm 13:55 Mostly Cloudy 46 8 37 3 71 71 W 18 30 30.16 1021 10 16 N/A
2:15 pm 14:15 Mostly Cloudy 50 10 36 2 58 58 W 20 31 30.15 1021 10 16 N/A
2:35 pm 14:35 Partly Cloudy 50 10 36 2 58 58 W 17 28 30.15 1021 10 16 N/A
2:36 pm 14:36 Partly Cloudy 50 10 36 2 58 58 W 21 33 30.15 1021 10 16 N/A
2:55 pm 14:55 Mostly Cloudy 48 9 36 2 62 62 WNW 21 33 30.15 1021 10 16 N/A
3:15 pm 15:15 Mostly Cloudy 45 7 36 2 71 71 W 21 33 30.17 1022 10 16 N/A
3:35 pm 15:35 Partly Cloudy 46 8 36 2 66 66 W 22 35 30.18 1022 10 16 N/A
3:36 pm 15:36 Partly Cloudy 46 8 36 2 66 66 W 23 37 30.18 1022 10 16 N/A
3:55 pm 15:55 Partly Cloudy 45 7 34 1 66 66 WNW 23 37 30.19 1022 10 16 N/A
4:15 pm 16:15 Partly Cloudy 45 7 32 0 61 61 W 20 31 30.19 1022 10 16 N/A
4:35 pm 16:35 Partly Cloudy 45 7 34 1 66 66 W 16 26 30.19 1022 10 16 N/A
4:55 pm 16:55 Partly Cloudy 45 7 34 1 66 66 W 13 20 30.20 1023 10 16 N/A
4:56 pm 16:56 Partly Cloudy 45 7 34 1 66 66 W 15 24 30.20 1023 10 16 N/A
5:15 pm 17:15 Mostly Cloudy 45 7 34 1 66 66 W 13 20 30.20 1023 10 16 N/A
5:35 pm 17:35 Mostly Cloudy 43 6 32 0 66 66 W 13 20 30.20 1023 10 16 N/A
5:36 pm 17:36 Mostly Cloudy 43 6 32 0 66 66 W 14 22 30.20 1023 10 16 N/A
5:55 pm 17:55 Mostly Cloudy 45 7 32 0 61 61 W 17 28 30.20 1023 10 16 N/A
6:15 pm 18:15 Cloudy 45 7 32 0 61 61 W 15 24 30.20 1023 10 16 N/A
6:35 pm 18:35 Cloudy 43 6 32 0 66 66 W 15 24 30.21 1023 10 16 N/A
6:55 pm 18:55 Cloudy 43 6 32 0 66 66 W 15 24 30.21 1023 10 16 N/A
7:15 pm 19:15 Cloudy 43 6 32 0 66 66 W 14 22 30.21 1023 10 16 N/A
7:35 pm 19:35 Cloudy 43 6 32 0 66 66 W 13 20 30.21 1023 10 16 N/A
7:55 pm 19:55 Cloudy 43 6 32 0 66 66 W 10 17 30.22 1024 10 16 N/A
8:15 pm 20:15 Mostly Cloudy 41 5 32 0 70 70 W 10 17 30.23 1024 10 16 N/A
8:16 pm 20:16 Mostly Cloudy 41 5 32 0 70 70 W 9 15 30.23 1024 10 16 N/A
8:35 pm 20:35 Partly Cloudy 39 4 32 0 75 75 W 9 15 30.23 1024 10 16 N/A
8:55 pm 20:55 Partly Cloudy 37 3 32 0 81 81 W 7 11 30.23 1024 10 16 N/A
9:15 pm 21:15 Partly Cloudy 37 3 32 0 81 81 W 7 11 30.23 1024 10 16 N/A
9:35 pm 21:35 Partly Cloudy 36 2 32 0 87 87 WSW 6 9 30.24 1024 10 16 N/A
9:55 pm 21:55 Mostly Cloudy 37 3 32 0 81 81 WSW 6 9 30.24 1024 10 16 N/A
10:15 pm 22:15 Cloudy 39 4 32 0 75 75 WSW 7 11 30.24 1024 10 16 N/A
10:16 pm 22:16 Cloudy 39 4 32 0 75 75 WSW 8 13 30.24 1024 10 16 N/A
10:35 pm 22:35 Cloudy 39 4 32 0 75 75 W 7 11 30.24 1024 10 16 N/A
10:55 pm 22:55 Cloudy 39 4 32 0 75 75 WSW 6 9 30.24 1024 10 16 N/A
11:15 pm 23:15 Cloudy 39 4 32 0 75 75 W 8 13 30.24 1024 10 16 N/A
11:35 pm 23:35 Partly Cloudy 37 3 32 0 81 81 W 7 11 30.24 1024 10 16 N/A
11:36 pm 23:36 Partly Cloudy 37 3 32 0 81 81 W 7 11 30.24 1024 10 16 N/A
11:55 pm 23:55 Partly Cloudy 36 2 32 0 87 87 W 7 11 30.25 1024 10 16 N/A

Powered by Vaisala Xweather